Wind_Speed
3 4 4 6 9 12 14 17 20 19 18 21 24 24 27 27 29 29 30 27 33 36 40 40 45 50 51 55 57 57 56 57 58 57 56 52 50 47 46 44 41 38 34 33 30 23 19
1 2 5 6 11 15 18 18 20 21 23 26 24 24 25 28 37 41 36 32 36 38 43 45 48 49 53 53 58 59 59 58 59 60 59 55 52 49 47 46 43 41 37 35 32 29 22
3 5 10 14 16 19 21 22 23 23 24 27 29 31 32 35 39 41 43 37 36 38 41 47 49 50 52 56 58 61 62 62 60 62 61 59 56 53 50 47 46 39 42 37 35 32 26
9 11 13 20 21 20 23 23 25 26 28 28 30 33 35 35 43 45 48 48 39 39 48 48 50 50 49 57 60 61 64 65 64 63 63 62 60 58 53 50 47 39 42 40 35 35 27
13 17 21 25 26 23 25 26 29 29 31 32 34 37 41 44 46 50 53 56 49 46 49 55 53 51 48 53 57 61 63 65 67 65 65 64 62 61 58 54 50 36 38 40 37 35 26
21 23 24 25 27 25 27 28 31 34 34 37 41 43 47 50 53 56 65 63 52 46 46 53 57 53 52 52 55 59 63 66 68 71 67 65 64 62 62 58 55 43 42 41 44 38 30
25 25 27 29 31 27 27 30 34 37 38 39 42 46 51 57 59 64 71 69 53 40 45 49 53 56 56 54 57 57 63 66 70 73 71 69 68 66 65 63 60 56 54 47 45 44 43
26 26 29 33 30 29 29 35 38 39 42 41 45 49 54 61 65 71 78 74 60 35 38 50 52 57 58 61 59 61 62 68 70 74 75 73 70 72 66 65 65 63 61 56 48 49 45
28 29 31 33 32 32 34 38 41 42 44 45 47 52 57 64 68 74 81 74 60 37 28 44 53 58 61 62 60 61 63 67 73 75 77 77 77 72 71 69 69 67 62 59 54 50 50
29 30 31 33 33 35 37 40 43 46 47 49 49 54 60 67 72 78 81 75 59 35 23 35 51 56 62 60 64 64 64 65 73 77 79 80 79 77 75 73 73 72 66 62 59 53 55
29 29 31 34 36 37 39 42 45 47 49 52 51 56 63 69 74 78 79 79 52 30 21 29 44 53 59 62 63 66 66 65 71 78 80 82 81 79 77 78 77 76 71 65 60 57 58
29 30 32 35 37 40 41 44 46 49 52 52 52 57 64 71 76 82 82 73 41 26 18 25 35 44 52 59 64 67 66 67 70 79 82 82 84 84 82 80 80 76 76 71 68 63 62
32 35 36 38 40 42 44 46 46 51 53 53 53 59 66 72 77 81 81 68 31 22 19 19 27 38 44 50 58 63 66 65 70 78 84 83 86 84 84 83 82 80 77 75 71 70 66
36 38 38 40 42 43 45 48 49 54 54 53 54 60 67 73 77 82 82 61 23 18 20 20 24 31 37 42 47 53 59 65 70 78 85 86 88 84 84 84 83 82 79 77 73 75 73
42 41 42 44 44 45 48 52 55 57 55 53 55 61 68 73 77 85 81 53 20 16 19 23 27 28 35 40 46 49 51 59 68 77 86 88 92 89 87 87 86 86 83 79 78 77 77
45 48 49 51 53 52 52 54 55 56 54 53 56 63 69 73 79 82 78 48 19 16 16 19 25 33 41 44 47 53 49 51 63 70 82 88 92 91 91 90 90 87 87 84 80 78 81
51 54 53 53 55 56 56 56 55 53 52 53 57 64 69 74 80 84 78 48 21 17 18 24 33 37 40 53 56 56 55 55 56 67 76 85 93 95 94 90 90 88 89 84 83 82 84
56 54 52 51 50 51 51 50 50 49 50 52 58 66 70 74 81 85 75 51 29 21 25 27 30 42 49 52 59 63 61 61 59 62 73 81 93 95 94 93 91 90 92 88 86 83 81
55 54 53 52 51 49 43 43 45 45 48 53 60 65 68 76 82 87 76 55 35 29 29 35 24 29 34 43 54 59 64 61 62 64 70 79 86 95 97 95 94 93 92 91 88 87 87
48 47 46 43 42 39 39 38 39 43 48 54 60 65 70 76 83 88 76 56 37 36 39 33 21 21 28 36 42 56 59 61 63 66 69 77 82 89 95 96 97 92 91 92 92 91 89
41 41 35 34 36 37 35 36 39 44 50 54 62 65 71 78 82 88 77 54 40 42 46 38 23 14 17 28 36 45 55 65 66 65 66 75 79 87 93 95 94 94 93 93 94 96 93
39 36 33 36 36 35 35 38 39 46 51 57 62 66 72 75 83 85 79 51 41 45 48 40 26 12 10 19 29 39 47 51 66 74 70 70 78 83 87 93 95 97 95 95 94 94 97
40 38 37 37 36 35 36 37 41 47 53 59 65 66 71 75 82 83 76 46 40 44 47 37 23 13 8 12 22 32 41 53 64 73 73 77 79 81 87 91 96 97 98 96 92 93 94
43 43 40 37 36 39 38 39 43 48 55 60 64 65 70 73 77 80 70 45 38 41 45 36 20 12 7 10 17 28 35 48 59 70 74 78 79 82 85 90 94 99 96 96 94 93 93
48 44 42 39 38 39 43 46 50 55 57 60 64 66 68 68 74 77 70 36 37 39 42 38 22 12 5 6 13 21 29 41 53 64 74 80 77 79 79 87 94 96 97 97 97 94 93
51 48 44 43 42 46 50 52 55 55 59 62 63 63 64 64 71 75 55 30 33 36 39 40 31 18 9 2 4 13 23 32 46 60 71 77 75 77 78 80 87 89 94 97 98 100 98
58 55 52 50 51 52 53 55 55 55 59 60 59 61 65 62 65 69 45 25 29 29 35 37 37 28 17 8 4 5 12 22 34 50 63 72 75 77 76 76 78 85 90 94 97 98 96
62 61 59 58 56 56 57 58 56 61 63 61 60 61 62 59 56 64 43 23 23 22 28 31 32 30 23 17 11 6 5 12 22 35 51 62 74 77 78 77 74 76 84 88 89 93 96
67 66 62 62 61 61 62 61 59 60 61 57 56 58 56 53 56 58 43 19 18 20 22 24 22 25 24 19 16 12 5 2 11 20 34 50 62 72 75 75 75 74 74 79 85 87 91
Wind_Direction
76 59 27 3 6 4 1 356 2 358 346 339 342 351 348 356 348 329 305 292 277 268 255 248 243 238 232 228 224 222 221 219 218 218 216 214 213 214 215 214 218 217 213 206 209 208 214
220 342 357 347 340 342 346 344 344 344 346 343 340 339 338 339 345 346 337 288 282 274 258 256 246 239 235 230 227 222 221 220 218 217 217 215 214 214 214 215 215 216 215 209 211 213 216
253 315 329 326 320 326 333 338 335 339 337 339 339 345 346 343 342 342 333 317 277 272 266 260 253 246 234 231 226 225 220 219 218 216 216 215 215 214 213 214 213 216 215 213 209 213 213
294 310 326 332 325 312 324 330 331 335 336 337 336 342 339 335 338 338 331 324 288 271 256 258 250 245 244 232 227 223 222 219 218 216 215 215 214 214 214 213 209 214 213 213 209 213 220
292 302 315 322 324 313 320 322 327 327 330 333 331 337 337 338 334 337 328 322 312 284 263 250 252 245 239 234 227 223 222 220 217 217 215 214 215 214 213 211 210 202 209 212 205 210 209
295 299 309 313 314 312 316 320 324 327 328 328 336 335 337 338 334 334 330 325 313 285 261 246 245 245 239 235 228 222 219 219 218 215 214 214 215 215 214 210 209 203 200 201 203 200 186
297 299 302 308 313 313 311 315 322 324 326 325 330 334 335 336 334 333 333 329 317 290 252 241 239 238 237 233 227 219 217 217 217 215 213 214 213 213 213 209 207 205 207 199 197 195 187
296 296 300 308 310 311 311 318 322 323 325 326 330 333 334 335 336 334 336 334 324 304 251 234 234 230 230 226 225 224 217 214 215 215 213 212 213 214 211 210 209 207 208 206 197 198 195
297 300 304 307 312 313 312 315 319 322 324 325 330 334 335 337 337 335 337 334 329 315 265 233 224 225 223 223 225 225 220 214 212 214 214 212 212 211 211 210 209 209 208 207 205 194 195
295 296 300 306 309 310 314 314 318 320 322 326 330 333 337 337 337 337 340 335 330 314 275 231 221 219 217 222 220 221 221 216 213 212 213 213 211 211 209 211 210 209 207 206 206 199 193
292 295 300 304 307 310 312 314 317 320 322 325 328 334 337 337 339 340 341 338 330 306 268 227 220 215 214 217 219 220 220 218 213 212 212 214 212 211 211 210 211 210 207 204 205 202 191
297 299 301 303 305 307 309 313 318 321 322 324 326 334 335 337 340 343 343 338 327 290 256 231 218 219 222 222 221 219 218 218 214 212 212 212 214 211 210 211 212 210 207 205 201 195 192
293 295 297 300 304 306 309 314 317 318 322 323 327 332 331 335 341 344 345 335 325 279 254 237 225 220 219 221 223 220 217 216 214 213 211 210 213 213 211 211 212 212 211 206 202 197 196
296 296 297 300 302 306 309 312 316 318 321 323 328 330 329 336 341 343 347 335 320 266 244 249 228 224 222 220 219 219 218 218 213 213 211 209 211 212 213 212 212 212 211 209 204 200 196
294 295 297 298 298 302 306 310 314 316 319 322 327 328 328 337 341 345 347 333 319 274 252 244 242 226 223 221 224 221 218 217 216 213 211 208 210 209 211 212 211 213 213 209 207 204 199
295 295 296 297 298 299 302 306 312 314 318 321 326 326 330 338 343 345 344 334 310 288 274 258 244 239 228 222 220 219 219 219 215 215 211 209 209 209 209 211 212 211 212 212 208 204 201
296 297 297 299 299 298 300 302 309 313 317 321 326 327 332 339 343 346 343 335 318 300 277 270 257 252 247 229 223 222 221 221 218 215 213 210 209 208 210 211 213 211 213 212 211 207 203
296 296 297 298 303 307 305 304 309 312 316 324 325 329 334 338 343 347 344 336 324 308 305 302 290 252 245 239 231 227 225 222 221 217 212 211 211 208 208 211 212 212 213 212 211 210 207
298 298 299 300 303 307 307 308 310 312 319 324 325 331 335 339 344 347 344 339 324 320 323 323 293 258 242 239 232 228 228 226 222 217 216 212 213 210 211 209 212 212 213 213 211 212 211
302 302 301 301 305 308 308 307 310 317 322 323 327 334 335 339 344 348 343 337 328 333 334 329 306 257 245 235 227 224 222 223 222 215 215 214 213 213 211 210 211 212 213 214 213 211 213
308 307 304 303 306 305 306 307 316 319 320 326 329 334 337 340 346 347 346 338 334 337 340 336 326 279 241 222 218 214 212 218 221 221 217 214 215 214 213 213 213 212 213 214 215 213 212
313 313 308 307 307 308 308 310 317 315 323 327 330 333 334 339 342 345 346 340 337 337 342 338 336 309 242 213 210 212 209 210 213 217 217 217 216 214 214 213 212 214 214 215 216 217 215
311 312 310 309 309 307 308 312 312 317 322 326 330 332 334 337 340 343 344 338 338 337 344 343 337 329 286 227 208 209 207 207 211 213 213 214 213 215 214 213 214 215 216 216 217 219 219
308 308 308 307 309 309 308 308 312 316 321 324 328 328 332 336 340 342 343 335 339 338 348 351 349 334 307 248 213 207 208 210 213 211 209 212 212 215 215 214 215 216 216 218 219 219 220
304 304 303 301 303 303 306 310 314 317 320 321 325 328 330 334 338 341 340 327 337 339 352 0 2 357 338 236 219 210 207 210 211 214 212 213 210 215 217 216 217 217 216 218 220 221 222
299 302 300 298 301 301 306 309 312 313 316 320 323 327 330 332 339 341 338 323 335 337 351 5 13 18 32 43 215 214 211 209 212 212 213 216 212 214 219 220 219 219 221 221 222 223 224
292 294 294 295 296 298 302 307 309 311 313 316 320 325 328 332 336 342 339 318 328 335 349 358 12 19 29 50 102 172 206 215 214 214 216 217 215 214 220 223 222 221 222 225 225 225 227
286 289 291 292 293 294 299 302 306 308 311 314 317 322 327 329 336 342 338 308 321 331 342 353 3 13 21 30 38 60 173 209 216 219 218 218 217 217 220 224 224 225 226 226 229 229 229
279 282 284 286 289 292 296 299 302 303 306 311 316 323 325 329 335 339 331 293 309 318 334 348 358 6 10 15 28 41 49 143 209 218 220 221 220 220 223 225 227 229 229 229 230 230 232
Height
10930 10929 10928 10927 10925 10923 10921 10918 10916 10914 10911 10908 10904 10900 10897 10894 10891 10887 10883 10879 10876 10875 10875 10874 10877 10880 10885 10892 10898 10906 10913 10919 10928 10937 10945 10953 10960 10967 10972 10978 10984 10991 10997 11003 11007 11011 11014
10928 10927 10926 10925 10923 10921 10918 10915 10913 10910 10906 10903 10899 10894 10891 10887 10882 10878 10875 10871 10866 10863 10862 10863 10864 10866 10872 10880 10886 10894 10901 10908 10917 10927 10936 10945 10953 10959 10965 10971 10979 10986 10993 11000 11005 11009 11012
10925 10924 10923 10921 10920 10917 10914 10911 10908 10905 10901 10897 10893 10888 10883 10878 10873 10868 10863 10860 10855 10851 10849 10847 10848 10852 10858 10864 10871 10881 10889 10897 10905 10915 10926 10936 10943 10951 10958 10965 10974 10980 10988 10996 11001 11005 11010
10922 10921 10919 10917 10915 10912 10909 10906 10904 10899 10895 10890 10886 10881 10875 10869 10864 10857 10851 10846 10840 10835 10832 10831 10831 10836 10843 10848 10856 10866 10877 10885 10894 10904 10914 10924 10933 10941 10950 10958 10968 10975 10983 10991 10998 11003 11007
10919 10917 10915 10912 10910 10907 10903 10900 10897 10893 10888 10883 10878 10872 10866 10859 10852 10845 10838 10830 10822 10816 10812 10812 10814 10819 10826 10831 10841 10852 10862 10872 10882 10892 10901 10912 10923 10931 10939 10950 10962 10971 10979 10986 10993 10999 11006
10915 10913 10910 10907 10905 10901 10897 10894 10890 10885 10880 10875 10868 10862 10855 10847 10839 10830 10821 10810 10798 10790 10787 10789 10795 10802 10811 10816 10824 10835 10846 10857 10867 10877 10889 10900 10910 10919 10929 10941 10951 10961 10971 10978 10986 10994 11003
10910 10908 10905 10902 10899 10895 10891 10886 10883 10878 10872 10865 10858 10851 10843 10835 10825 10814 10803 10785 10771 10761 10760 10767 10774 10784 10791 10799 10808 10818 10829 10841 10852 10863 10876 10886 10898 10906 10914 10930 10941 10951 10962 10969 10978 10985 10994
10905 10903 10900 10896 10892 10888 10883 10879 10875 10869 10863 10856 10848 10840 10832 10822 10811 10798 10783 10764 10747 10737 10737 10743 10752 10761 10770 10781 10792 10801 10812 10824 10836 10847 10860 10872 10883 10891 10909 10919 10930 10940 10949 10959 10969 10977 10986
10899 10897 10893 10888 10884 10881 10877 10871 10866 10860 10853 10846 10838 10830 10821 10810 10797 10782 10764 10745 10729 10719 10718 10722 10732 10742 10754 10766 10779 10787 10797 10808 10819 10832 10842 10854 10863 10883 10893 10906 10916 10927 10939 10949 10959 10968 10976
10893 10890 10886 10881 10877 10874 10869 10863 10858 10852 10845 10837 10829 10820 10810 10799 10785 10770 10750 10730 10715 10707 10706 10710 10718 10728 10740 10751 10761 10771 10781 10795 10807 10816 10827 10838 10857 10867 10880 10892 10902 10913 10927 10939 10949 10959 10967
10886 10882 10879 10874 10870 10866 10861 10855 10849 10843 10836 10829 10819 10810 10799 10788 10774 10757 10738 10719 10704 10699 10699 10702 10709 10717 10726 10735 10748 10756 10766 10778 10790 10802 10815 10825 10840 10853 10868 10877 10888 10902 10916 10930 10941 10951 10959
10879 10876 10872 10867 10862 10857 10852 10846 10841 10834 10827 10819 10810 10800 10790 10778 10765 10747 10728 10709 10697 10692 10693 10696 10701 10708 10715 10723 10731 10741 10750 10762 10776 10787 10798 10815 10825 10837 10850 10866 10876 10891 10902 10916 10929 10942 10949
10871 10868 10864 10859 10854 10849 10843 10838 10832 10825 10818 10810 10801 10791 10781 10770 10755 10738 10718 10700 10690 10688 10687 10690 10694 10699 10705 10712 10720 10728 10738 10747 10757 10770 10785 10800 10810 10825 10839 10851 10865 10878 10894 10905 10917 10930 10937
10863 10859 10855 10850 10845 10840 10834 10828 10823 10816 10809 10801 10792 10782 10772 10761 10746 10728 10709 10694 10684 10683 10683 10683 10688 10692 10696 10702 10708 10716 10725 10734 10744 10753 10768 10780 10796 10813 10827 10841 10854 10867 10879 10894 10906 10916 10929
10853 10850 10846 10841 10836 10832 10826 10819 10813 10807 10800 10791 10783 10773 10762 10751 10738 10722 10702 10686 10678 10677 10676 10678 10681 10685 10688 10692 10698 10704 10712 10720 10729 10737 10748 10762 10777 10793 10808 10820 10837 10852 10868 10879 10891 10904 10916
10844 10840 10835 10830 10825 10821 10816 10810 10804 10797 10791 10783 10774 10764 10753 10742 10729 10712 10695 10681 10673 10671 10670 10670 10671 10674 10677 10682 10687 10693 10701 10709 10716 10726 10738 10750 10765 10779 10789 10803 10818 10839 10850 10865 10881 10893 10904
10833 10829 10825 10820 10814 10810 10806 10800 10795 10788 10782 10775 10766 10755 10744 10732 10719 10704 10687 10673 10666 10664 10664 10664 10662 10660 10662 10667 10672 10680 10687 10697 10704 10711 10723 10737 10746 10759 10775 10793 10806 10826 10837 10857 10866 10879 10889
10821 10817 10813 10808 10803 10799 10794 10789 10786 10779 10773 10766 10757 10747 10734 10722 10709 10694 10677 10665 10658 10655 10652 10649 10642 10640 10640 10647 10655 10662 10669 10681 10691 10698 10707 10719 10728 10748 10764 10777 10794 10809 10820 10838 10853 10865 10876
10809 10805 10801 10797 10792 10789 10785 10780 10776 10770 10764 10758 10749 10738 10726 10714 10701 10683 10666 10655 10647 10643 10637 10629 10622 10619 10621 10625 10634 10643 10652 10664 10676 10684 10692 10704 10719 10736 10750 10763 10777 10791 10809 10823 10837 10848 10859
10797 10792 10788 10785 10782 10779 10775 10771 10767 10761 10756 10749 10740 10730 10718 10705 10692 10675 10658 10646 10637 10629 10622 10613 10606 10604 10605 10608 10615 10625 10639 10648 10657 10669 10679 10692 10706 10724 10736 10750 10757 10781 10796 10805 10818 10830 10840
10787 10782 10778 10775 10772 10770 10767 10763 10759 10754 10748 10740 10731 10721 10709 10696 10682 10668 10652 10639 10629 10620 10611 10600 10594 10591 10590 10594 10602 10610 10622 10631 10646 10658 10669 10680 10695 10705 10721 10741 10758 10766 10775 10786 10798 10809 10824
10779 10775 10771 10768 10765 10762 10759 10754 10750 10744 10738 10731 10722 10711 10700 10687 10674 10659 10643 10631 10623 10615 10606 10593 10586 10583 10583 10586 10593 10601 10610 10621 10630 10641 10654 10667 10681 10693 10708 10725 10737 10747 10760 10769 10782 10795 10805
10771 10768 10764 10762 10758 10754 10751 10747 10742 10736 10729 10722 10713 10704 10692 10680 10666 10653 10638 10626 10619 10612 10603 10592 10582 10579 10578 10581 10585 10592 10600 10609 10615 10625 10642 10653 10666 10679 10693 10707 10720 10733 10744 10756 10770 10779 10791
10763 10759 10757 10754 10750 10747 10743 10738 10734 10728 10721 10714 10706 10696 10685 10674 10662 10648 10632 10623 10617 10611 10602 10591 10581 10577 10577 10577 10580 10585 10591 10600 10607 10616 10629 10641 10654 10665 10677 10692 10705 10713 10733 10743 10754 10762 10771
10753 10750 10748 10745 10741 10737 10734 10730 10725 10720 10713 10705 10698 10689 10679 10667 10656 10644 10628 10618 10613 10609 10602 10593 10583 10577 10575 10575 10577 10580 10585 10592 10600 10611 10620 10627 10645 10656 10668 10678 10687 10704 10717 10726 10735 10746 10757
10741 10740 10738 10735 10731 10727 10723 10720 10716 10710 10704 10697 10691 10682 10673 10662 10652 10641 10626 10618 10611 10606 10601 10595 10587 10580 10577 10575 10575 10578 10581 10585 10593 10601 10611 10622 10638 10648 10655 10668 10678 10693 10702 10713 10722 10729 10740
10730 10728 10726 10725 10721 10717 10713 10709 10705 10700 10694 10689 10682 10675 10668 10658 10648 10638 10625 10618 10613 10608 10602 10596 10590 10585 10582 10579 10577 10577 10579 10583 10588 10595 10604 10615 10629 10640 10646 10656 10670 10678 10687 10697 10705 10719 10730
10715 10714 10713 10711 10710 10705 10702 10698 10695 10689 10684 10680 10674 10668 10660 10652 10643 10633 10623 10618 10614 10610 10605 10599 10595 10591 10588 10583 10581 10580 10580 10581 10584 10589 10597 10606 10618 10628 10636 10645 10658 10666 10674 10684 10696 10704 10711
10699 10698 10698 10697 10696 10693 10689 10686 10684 10679 10674 10670 10666 10660 10652 10645 10638 10629 10620 10615 10612 10610 10607 10603 10599 10595 10591 10588 10586 10584 10583 10583 10584 10587 10591 10599 10608 10617 10626 10636 10643 10653 10662 10670 10677 10685 10693